Terminal Aerodrome Forecast
Issued by NWS Wilmington, NC

Home | Current Version | Previous Version | Text Only | Print | Product List | Glossary On
Versions: 1 2 3 4 5 6 7 8 9 10 11 12 13 14 15 16 17 18 19
000
FTUS42 KILM 271100
TAFLBT
TAF
KLBT 271133Z 2712/2812 18004KT P6SM BKN080
     FM271400 25015G22KT P6SM SCT050 BKN100
     FM272000 30017G27KT P6SM SCT050
     FM280000 33007KT P6SM SKC=

USA.gov is the U.S. government's official web portal to all federal, state and local government web resources and services.